When you browse on this site, cookies collect data to enhance your experience and personalize the content and advertising you see.
Visit our Privacy Policy to learn more. By continuing to use the site, you agree to this use of cookies and data.
  • In Hungary
  • List of Countries
  • For 7 days
  • Water Temperature
  • Satellite Maps
  • Weather Map
  • News
  • Weather Widgets
  • user-avatar
    Login

    Hourly Weather Kossow

    Today, 16 December, Sunday

    Time Temperature Precipitation Wind Pressure Humidity
    00:00 -4°C° 0.2 mm 4 mps 743 mmHg 87%
    01:00 -4°C° 0 mm 3 mps 743 mmHg 87%
    02:00 -4°C° 0.1 mm 3 mps 743 mmHg 88%
    03:00 -4°C° 0.1 mm 3 mps 742 mmHg 89%
    04:00 -4°C° 0.1 mm 3 mps 742 mmHg 89%
    05:00 -4°C° 0.1 mm 3 mps 742 mmHg 90%
    06:00 -3°C° 0.1 mm 2 mps 742 mmHg 90%
    07:00 -3°C° 0.1 mm 2 mps 741 mmHg 91%
    08:00 -3°C° 0 mm 2 mps 741 mmHg 90%
    09:00 -3°C° 0 mm 2 mps 741 mmHg 88%
    10:00 -3°C° 0 mm 2 mps 742 mmHg 87%
    11:00 -3°C° 0 mm 2 mps 741 mmHg 86%
    12:00 0°C° 0 mm 1 mps 741 mmHg 84%
    13:00 0°C° 0 mm 1 mps 741 mmHg 82%
    14:00 -1°C° 0 mm 1 mps 741 mmHg 84%
    15:00 -1°C° 0 mm 1 mps 741 mmHg 86%
    16:00 -2°C° 0 mm 1 mps 741 mmHg 88%
    17:00 -2°C° 0 mm 1 mps 741 mmHg 89%
    18:00 -2°C° 0 mm 1 mps 741 mmHg 90%
    19:00 -3°C° 0 mm 1 mps 741 mmHg 91%
    20:00 -5°C° 0 mm 2 mps 741 mmHg 90%
    21:00 -5°C° 0 mm 2 mps 742 mmHg 90%
    22:00 -5°C° 0 mm 2 mps 742 mmHg 89%
    23:00 -5°C° 0 mm 2 mps 742 mmHg 89%

    Tomorrow, 17 December, Monday

    Time Temperature Precipitation Wind Pressure Humidity
    00:00 -5°C° 0 mm 2 mps 742 mmHg 89%
    01:00 -5°C° 0 mm 2 mps 742 mmHg 88%
    02:00 -5°C° 0 mm 2 mps 742 mmHg 88%
    03:00 -5°C° 0 mm 2 mps 742 mmHg 87%
    04:00 -3°C° 0 mm 1 mps 742 mmHg 87%
    05:00 -5°C° 0 mm 2 mps 742 mmHg 86%
    06:00 -5°C° 0 mm 2 mps 742 mmHg 85%
    07:00 -5°C° 0 mm 2 mps 743 mmHg 84%
    08:00 -4°C° 0 mm 2 mps 743 mmHg 82%
    09:00 -4°C° 0 mm 2 mps 743 mmHg 80%
    10:00 -3°C° 0 mm 2 mps 743 mmHg 79%
    11:00 -2°C° 0 mm 2 mps 744 mmHg 79%
    12:00 -2°C° 0 mm 2 mps 744 mmHg 79%
    13:00 -1°C° 0 mm 2 mps 744 mmHg 79%
    14:00 -2°C° 0 mm 2 mps 744 mmHg 82%
    15:00 0°C° 0 mm 1 mps 745 mmHg 85%
    16:00 0°C° 0 mm 1 mps 745 mmHg 87%
    17:00 0°C° 0 mm 1 mps 745 mmHg 88%
    18:00 0°C° 0 mm 1 mps 746 mmHg 89%
    19:00 0°C° 0 mm 1 mps 746 mmHg 90%
    20:00 -2°C° 0 mm 2 mps 747 mmHg 91%
    21:00 -2°C° 0 mm 2 mps 747 mmHg 91%
    22:00 -2°C° 0 mm 2 mps 747 mmHg 91%
    23:00 -2°C° 0 mm 2 mps 747 mmHg 92%

    Day after tomorrow, 18 December, Tuesday

    Time Temperature Precipitation Wind Pressure Humidity
    00:00 -2°C° 0 mm 2 mps 747 mmHg 92%
    01:00 -3°C° 0 mm 2 mps 748 mmHg 92%
    02:00 -3°C° 0 mm 2 mps 748 mmHg 93%
    03:00 -2°C° 0 mm 2 mps 748 mmHg 93%
    04:00 -2°C° 0 mm 2 mps 748 mmHg 93%
    05:00 0°C° 0 mm 1 mps 748 mmHg 92%
    06:00 0°C° 0 mm 1 mps 748 mmHg 92%
    07:00 -1°C° 0 mm 1 mps 748 mmHg 91%
    08:00 0°C° 0 mm 1 mps 748 mmHg 90%
    09:00 0°C° 0 mm 1 mps 748 mmHg 89%
    10:00 +1°C° 0 mm 1 mps 749 mmHg 88%
    11:00 +1°C° 0 mm 1 mps 748 mmHg 88%
    12:00 +1°C° 0 mm 1 mps 748 mmHg 88%
    13:00 +2°C° 0 mm 1 mps 748 mmHg 88%
    14:00 +1°C° 0 mm 1 mps 748 mmHg 89%
    15:00 +1°C° 0 mm 1 mps 748 mmHg 90%
    16:00 0°C° 0 mm 1 mps 748 mmHg 90%
    17:00 0°C° 0.1 mm 1 mps 748 mmHg 90%
    18:00 0°C° 0.1 mm 1 mps 748 mmHg 90%
    19:00 0°C° 0.1 mm 1 mps 748 mmHg 90%
    20:00 -2°C° 0 mm 2 mps 748 mmHg 91%
    21:00 -3°C° 0 mm 2 mps 748 mmHg 92%
    22:00 -3°C° 0 mm 2 mps 748 mmHg 93%
    23:00 -3°C° 0 mm 2 mps 748 mmHg 93%

    19 December, Wednesday

    Time Temperature Precipitation Wind Pressure Humidity
    00:00 -3°C° 0 mm 2 mps 748 mmHg 93%
    01:00 -4°C° 0 mm 2 mps 748 mmHg 93%
    02:00 -4°C° 0 mm 2 mps 748 mmHg 93%
    03:00 -4°C° 0 mm 2 mps 747 mmHg 93%
    04:00 -4°C° 0 mm 2 mps 747 mmHg 93%
    05:00 -4°C° 0 mm 2 mps 747 mmHg 93%
    06:00 -4°C° 0 mm 2 mps 747 mmHg 93%
    07:00 -6°C° 0 mm 3 mps 747 mmHg 93%
    08:00 -5°C° 0 mm 3 mps 747 mmHg 91%
    09:00 -5°C° 0 mm 3 mps 747 mmHg 89%
    10:00 -4°C° 0 mm 4 mps 748 mmHg 87%
    11:00 -4°C° 0 mm 4 mps 747 mmHg 86%
    12:00 -3°C° 0 mm 4 mps 747 mmHg 85%
    13:00 -3°C° 0 mm 4 mps 747 mmHg 84%
    14:00 -4°C° 0 mm 4 mps 747 mmHg 86%
    15:00 -4°C° 0 mm 4 mps 747 mmHg 88%
    16:00 -5°C° 0 mm 4 mps 747 mmHg 90%
    17:00 -5°C° 0 mm 4 mps 746 mmHg 89%
    18:00 -5°C° 0 mm 4 mps 746 mmHg 89%
    19:00 -7°C° 0 mm 4 mps 746 mmHg 89%
    20:00 -7°C° 0 mm 4 mps 746 mmHg 89%
    21:00 -7°C° 0 mm 4 mps 746 mmHg 89%
    22:00 -7°C° 0 mm 4 mps 746 mmHg 88%
    23:00 -7°C° 0 mm 4 mps 746 mmHg 88%

    20 December, Thursday

    Time Temperature Precipitation Wind Pressure Humidity
    00:00 -7°C° 0 mm 4 mps 746 mmHg 88%
    01:00 -8°C° 0 mm 4 mps 746 mmHg 88%
    02:00 -8°C° 0 mm 4 mps 746 mmHg 87%
    03:00 -7°C° 0 mm 3 mps 745 mmHg 87%
    04:00 -7°C° 0 mm 3 mps 745 mmHg 87%
    05:00 -7°C° 0 mm 3 mps 745 mmHg 87%
    06:00 -7°C° 0 mm 3 mps 745 mmHg 86%
    07:00 -7°C° 0 mm 3 mps 745 mmHg 86%
    08:00 -6°C° 0 mm 3 mps 745 mmHg 84%
    09:00 -5°C° 0 mm 3 mps 745 mmHg 82%
    10:00 -5°C° 0 mm 3 mps 745 mmHg 80%
    11:00 -4°C° 0 mm 3 mps 745 mmHg 79%
    12:00 -3°C° 0 mm 2 mps 745 mmHg 78%
    13:00 -2°C° 0 mm 2 mps 745 mmHg 77%
    14:00 -2°C° 0 mm 2 mps 745 mmHg 79%
    15:00 -2°C° 0 mm 2 mps 745 mmHg 81%
    16:00 0°C° 0 mm 1 mps 745 mmHg 82%
    17:00 0°C° 0.1 mm 1 mps 745 mmHg 83%
    18:00 0°C° 0.1 mm 1 mps 745 mmHg 85%
    19:00 0°C° 0.1 mm 1 mps 745 mmHg 86%
    20:00 0°C° 0 mm 1 mps 745 mmHg 86%
    21:00 -3°C° 0 mm 2 mps 745 mmHg 86%
    22:00 -3°C° 0 mm 2 mps 745 mmHg 86%
    23:00 -3°C° 0 mm 2 mps 745 mmHg 86%

    21 December, Friday

    Time Temperature Precipitation Wind Pressure Humidity
    00:00 -3°C° 0 mm 2 mps 745 mmHg 86%
    01:00 -2°C° 0 mm 2 mps 745 mmHg 86%
    02:00 -2°C° 0.1 mm 2 mps 745 mmHg 87%
    03:00 -2°C° 0.1 mm 2 mps 745 mmHg 88%
    04:00 -2°C° 0.1 mm 2 mps 745 mmHg 89%
    05:00 -2°C° 0.4 mm 2 mps 745 mmHg 91%
    06:00 -2°C° 0.4 mm 2 mps 745 mmHg 93%
    07:00 -2°C° 0.4 mm 2 mps 745 mmHg 95%
    08:00 -2°C° 0.5 mm 2 mps 745 mmHg 95%
    09:00 -1°C° 0.5 mm 2 mps 745 mmHg 95%
    10:00 -1°C° 0.5 mm 2 mps 745 mmHg 95%
    11:00 -1°C° 0.3 mm 2 mps 745 mmHg 95%
    12:00 -1°C° 0.3 mm 2 mps 744 mmHg 96%
    13:00 +1°C° 0.3 mm 2 mps 744 mmHg 96%
    14:00 -1°C° 0.1 mm 2 mps 744 mmHg 96%
    15:00 -1°C° 0.1 mm 2 mps 744 mmHg 95%
    16:00 -1°C° 0.1 mm 2 mps 744 mmHg 95%
    17:00 -1°C° 0 mm 2 mps 743 mmHg 94%
    18:00 -2°C° 0 mm 2 mps 743 mmHg 94%
    19:00 -2°C° 0 mm 2 mps 743 mmHg 93%
    20:00 -2°C° 0 mm 2 mps 743 mmHg 93%
    21:00 -3°C° 0 mm 2 mps 743 mmHg 92%
    22:00 -3°C° 0 mm 2 mps 743 mmHg 92%
    23:00 -3°C° 0 mm 2 mps 743 mmHg 91%
    Show more